Wetbulb
57.66 57.57 57.21 56.98 57.04 57.11 56.99 56.73 56.64 56.67 56.12 55.87 56.10 55.74 55.46 54.99 54.82 54.83 51.42 55.80 58.11 61.04 57.85 56.75 57.56 58.22 58.35 56.39 57.26 57.06 50.93 50.76 53.20 53.61 56.22 60.71 58.75 61.41 60.77 58.73 60.55 63.24 67.27 72.93 75.76
57.22 57.13 57.01 56.89 56.93 57.13 56.86 56.68 56.63 56.56 56.57 56.14 56.01 55.84 55.60 55.08 54.36 52.66 58.39 61.90 61.11 57.65 54.62 53.60 53.96 56.13 55.26 55.03 55.99 53.80 50.24 52.76 56.28 55.82 54.96 58.01 57.46 59.65 57.88 57.56 59.07 61.98 67.70 74.14 75.08
56.51 56.69 56.92 56.34 56.44 56.86 56.66 56.45 56.54 56.59 56.62 56.49 55.79 55.43 55.37 54.96 51.70 52.05 63.14 61.71 61.83 59.67 55.07 55.03 54.74 54.90 53.39 55.22 54.63 53.77 51.24 55.72 56.78 56.74 55.65 55.12 55.80 57.84 56.15 56.83 59.59 60.87 64.98 71.23 73.07
55.91 56.09 56.17 56.12 55.90 55.96 56.01 55.64 56.16 56.38 56.37 56.21 55.79 55.15 55.19 55.11 44.37 55.58 61.27 63.39 61.10 57.81 55.09 53.94 53.30 51.77 51.15 51.28 54.50 52.56 54.88 54.62 56.45 58.40 57.02 54.23 56.11 56.01 56.59 57.75 60.39 60.67 63.33 69.43 71.26
56.22 56.16 56.42 56.01 55.80 55.96 55.78 55.71 55.84 55.67 55.59 55.60 55.66 55.48 53.88 50.44 50.80 57.15 60.72 62.67 59.45 56.54 53.44 52.31 51.40 51.35 49.41 51.59 53.06 53.76 54.39 54.95 57.12 57.69 56.28 55.69 54.84 55.15 54.66 57.22 58.76 59.87 59.81 66.72 70.21
56.09 55.84 56.09 55.64 55.47 55.65 55.75 55.59 55.33 55.33 55.07 55.01 55.66 55.67 51.96 47.02 58.42 57.85 56.33 58.21 59.69 56.26 52.94 52.44 52.26 52.85 51.03 51.14 51.47 55.66 55.38 55.25 56.59 55.24 54.00 52.93 54.45 57.12 56.47 58.17 57.95 58.26 58.91 61.26 69.61
55.62 55.85 55.67 55.65 55.19 55.23 55.33 55.15 54.97 54.80 54.88 54.77 55.69 54.84 51.14 51.49 58.66 56.23 57.75 59.18 58.82 56.19 52.13 52.91 54.29 52.28 51.85 50.12 54.62 55.48 51.03 52.61 53.27 54.23 54.32 56.78 52.18 54.17 58.19 57.26 57.02 57.88 58.61 60.42 62.14
55.30 55.07 55.10 54.69 54.30 54.42 54.76 54.92 54.59 54.46 54.89 55.84 56.91 53.67 47.89 59.32 60.68 58.50 56.98 56.79 60.55 57.25 54.43 54.24 54.89 53.22 51.79 53.08 52.86 50.50 51.00 45.66 50.54 54.25 56.08 54.32 48.73 54.89 59.17 58.31 56.76 56.04 56.68 59.15 60.46
54.79 54.48 53.95 53.57 53.85 54.03 54.20 54.17 54.13 54.78 55.26 56.39 54.63 51.90 49.15 60.00 55.60 57.84 57.26 53.92 58.45 56.46 55.03 55.20 53.98 51.07 51.18 47.73 46.79 49.59 42.85 46.79 48.76 56.07 54.98 53.77 50.81 55.52 57.07 57.21 57.67 56.29 56.41 57.47 59.31
54.31 54.20 53.66 53.05 52.89 53.48 53.70 53.64 54.75 54.05 54.64 55.49 54.01 47.39 51.53 52.60 56.16 55.97 57.76 56.29 56.21 54.52 51.67 50.00 49.44 47.12 47.60 46.32 40.73 44.10 45.66 48.31 47.82 53.60 53.68 50.99 51.35 53.83 55.18 55.97 57.16 57.26 56.34 57.89 58.97
54.12 53.81 53.52 53.17 52.67 52.40 52.25 51.24 50.23 48.22 49.86 48.52 49.49 49.47 53.37 56.91 56.80 54.47 56.12 55.93 55.95 51.86 45.22 47.34 44.44 42.63 45.42 48.44 48.41 49.00 47.02 47.10 49.22 51.70 50.41 48.54 49.58 50.67 53.03 53.53 55.09 55.75 56.01 56.95 58.60
54.42 53.21 52.70 52.63 52.42 52.32 52.22 46.39 49.92 51.80 46.23 51.02 52.69 52.55 54.71 56.43 51.59 53.22 56.40 52.09 50.31 44.83 47.01 44.96 42.26 46.64 47.89 48.55 47.52 47.18 45.43 44.55 47.06 49.27 48.80 47.69 45.97 48.25 50.67 52.26 54.26 54.31 54.74 56.40 57.79
53.30 52.82 51.67 51.69 51.65 50.85 50.60 50.46 55.17 53.80 44.63 49.31 52.63 51.87 52.53 55.25 51.17 51.27 53.62 52.11 48.08 45.59 45.28 43.20 44.90 47.44 46.49 46.02 45.20 45.98 45.38 44.48 44.48 47.80 48.81 47.59 45.13 45.88 49.09 51.58 52.67 54.27 54.95 56.13 56.67
52.59 52.63 52.20 51.48 48.72 50.92 51.08 55.78 55.84 54.31 38.37 45.24 49.92 52.27 53.85 54.12 49.66 55.56 54.16 51.15 48.49 45.64 46.31 45.57 47.67 45.43 45.43 44.72 46.08 43.60 48.03 47.12 45.81 45.34 42.19 48.21 41.02 45.54 48.12 50.00 51.20 52.79 54.43 55.36 56.46
51.48 51.69 51.92 51.72 47.54 46.56 50.85 53.56 55.28 49.11 30.88 48.09 49.75 57.11 54.30 50.59 51.61 52.51 53.30 50.36 46.59 46.35 47.16 44.25 45.72 44.95 44.40 45.13 47.39 45.42 49.12 47.45 47.24 46.02 46.21 45.62 41.98 44.18 48.88 47.80 49.67 52.06 53.89 55.50 57.50
51.29 51.52 51.21 49.29 49.61 49.92 53.73 52.41 49.34 36.79 30.86 44.52 50.38 49.17 48.81 50.20 51.46 52.07 49.56 50.91 51.51 47.41 47.86 47.14 50.02 48.02 46.89 47.90 48.29 49.54 48.17 47.67 47.46 46.10 40.57 44.97 44.25 43.82 46.04 48.74 50.64 52.59 53.55 55.06 57.64
50.96 51.06 50.11 50.30 46.43 53.15 52.28 47.67 35.26 31.30 45.46 42.97 47.27 49.40 48.54 47.06 48.91 48.90 46.41 44.70 44.57 41.45 42.16 45.44 46.75 48.53 48.89 46.96 49.33 48.24 46.67 40.50 38.74 38.91 38.67 46.32 44.19 45.34 50.54 51.13 52.45 52.82 53.99 56.98 58.06
50.15 49.26 49.87 52.40 54.94 54.13 48.27 39.96 28.95 38.95 41.72 47.58 48.35 48.85 45.44 46.79 47.45 47.17 44.54 42.63 47.23 45.57 42.94 40.88 40.52 46.60 49.07 48.02 46.27 47.01 46.50 41.51 34.92 36.30 40.11 45.96 42.18 45.55 52.45 53.47 54.83 55.94 56.78 57.33 57.19
48.62 51.60 51.51 53.71 54.56 53.22 42.77 31.96 32.80 40.69 45.97 44.97 47.53 44.50 44.16 46.26 47.73 45.94 44.92 43.87 46.03 47.72 42.56 41.98 42.83 48.65 49.07 49.90 49.75 46.59 44.04 48.74 44.05 45.38 41.84 43.93 47.41 51.10 52.56 52.98 53.88 54.98 56.58 57.04 58.25
47.62 48.87 51.18 53.96 51.40 47.32 37.97 34.00 39.89 44.73 44.73 47.30 39.27 46.51 43.02 42.58 45.03 45.04 44.43 45.63 45.01 47.93 50.55 46.84 42.22 47.11 48.12 49.59 49.69 48.76 49.53 43.54 44.81 37.87 36.85 41.53 43.62 44.74 49.17 50.59 52.73 54.38 55.78 56.54 57.87
46.97 44.73 52.35 55.64 49.59 41.57 33.76 36.87 41.03 44.45 44.68 45.62 44.41 42.11 45.15 44.42 45.87 44.51 44.19 45.05 46.62 47.01 49.42 48.19 46.27 44.87 48.11 45.82 45.53 46.37 45.83 46.70 47.27 45.32 40.03 38.69 41.83 51.34 51.60 52.79 53.29 54.98 56.22 56.44 56.87
45.24 38.46 51.91 51.53 39.19 38.70 38.34 42.00 43.06 44.24 46.40 46.30 46.92 41.96 43.35 45.92 45.06 43.85 42.58 45.81 48.17 47.78 45.48 49.02 46.88 42.29 44.51 48.87 50.33 49.30 47.81 47.73 43.11 42.02 44.35 44.08 41.67 53.50 54.51 54.92 55.89 55.21 55.53 56.79 57.17
41.95 44.08 51.14 48.40 36.04 35.48 39.26 42.43 45.20 44.10 44.02 43.93 44.59 45.14 45.65 41.98 40.92 45.81 46.82 49.18 49.03 47.79 46.58 49.55 45.48 39.39 43.15 46.31 49.31 47.29 48.16 49.14 48.80 48.48 44.00 41.53 42.91 54.00 54.82 54.84 55.39 54.53 55.41 56.16 56.94
43.48 38.17 45.73 43.10 42.21 35.99 37.43 41.03 43.32 48.47 44.64 46.18 45.22 45.84 42.67 40.42 43.18 45.25 44.66 49.12 50.19 48.47 52.79 51.39 46.09 44.42 39.98 43.34 46.91 45.13 47.23 48.09 47.30 43.61 44.21 44.37 46.02 49.97 51.42 52.23 54.05 54.88 55.52 55.89 56.12
45.33 39.38 41.91 38.21 38.90 40.66 40.28 40.16 39.15 42.57 47.06 45.36 44.33 43.94 41.41 38.82 42.59 43.50 47.16 49.08 48.83 51.33 49.90 49.46 42.34 43.14 44.70 46.27 46.91 44.86 45.75 46.82 46.14 47.32 43.68 44.92 44.92 49.08 52.52 52.65 54.25 54.16 54.38 54.08 54.45
43.14 39.40 40.41 38.89 42.32 40.48 39.07 37.68 36.34 42.98 41.76 39.94 40.51 41.30 39.49 36.13 42.44 42.43 47.41 48.41 47.00 49.81 48.33 50.90 43.75 45.01 41.76 47.59 47.16 44.60 46.75 47.38 47.51 47.66 47.60 46.57 45.21 51.03 52.18 53.44 52.85 52.41 52.58 52.42 53.11
47.74 47.38 40.51 39.49 40.66 36.47 35.11 35.56 39.83 43.90 43.87 44.71 43.99 40.86 36.54 36.79 45.73 48.86 52.22 51.95 51.46 48.39 47.82 47.37 45.89 43.15 38.52 45.03 44.46 41.05 45.54 46.43 47.38 48.36 47.02 43.20 46.81 49.68 48.86 49.36 51.14 52.11 52.46 52.43 53.38
MSLP
1018.20 1017.92 1017.62 1017.26 1016.99 1016.80 1016.63 1016.30 1016.13 1015.96 1015.81 1015.51 1015.06 1014.90 1014.83 1014.67 1014.41 1013.59 1011.54 1009.94 1010.14 1010.58 1011.34 1009.61 1009.06 1008.91 1008.55 1007.36 1006.10 1005.70 1004.41 1002.51 1001.40 1000.59 999.78 999.87 999.13 999.27 999.12 998.87 998.72 998.86 998.65 999.19 1000.31
1017.90 1017.60 1017.37 1017.08 1016.78 1016.55 1016.25 1016.06 1015.77 1015.54 1015.41 1015.39 1015.27 1014.79 1014.62 1014.52 1013.33 1010.60 1008.78 1009.10 1009.79 1010.72 1010.59 1008.90 1007.60 1008.01 1007.58 1007.07 1005.87 1005.27 1004.51 1002.64 1002.22 1001.69 1000.96 1000.21 1000.32 999.64 1000.09 999.74 999.19 999.30 999.74 1000.39 1000.98
1017.70 1017.39 1017.10 1016.74 1016.55 1016.28 1016.11 1015.93 1015.65 1015.33 1015.07 1014.91 1014.81 1014.79 1014.36 1014.04 1011.58 1006.80 1006.48 1007.49 1009.04 1010.20 1009.59 1008.11 1007.33 1006.83 1006.58 1006.37 1005.72 1005.17 1004.19 1003.41 1002.55 1003.29 1003.81 1002.87 1001.48 1000.88 1000.69 999.78 999.37 999.30 999.47 1000.30 1000.84
1017.51 1017.19 1016.81 1016.66 1016.39 1016.10 1015.81 1015.54 1015.42 1015.21 1014.96 1014.73 1014.68 1014.36 1014.29 1013.11 1008.55 1005.73 1006.66 1007.34 1008.64 1009.53 1009.42 1007.90 1006.65 1005.91 1005.50 1005.12 1005.35 1004.89 1005.01 1004.77 1004.09 1004.80 1005.07 1004.67 1003.49 1001.95 1001.35 1000.39 999.96 1000.17 1000.33 999.74 1000.57
1017.53 1017.17 1016.74 1016.38 1016.18 1015.92 1015.62 1015.36 1015.10 1014.91 1014.80 1014.61 1014.48 1014.51 1014.04 1011.32 1007.19 1005.92 1006.97 1007.19 1008.14 1009.09 1008.10 1006.82 1005.54 1005.05 1004.44 1004.74 1005.08 1005.18 1005.46 1006.04 1005.62 1005.51 1006.02 1006.50 1005.43 1003.32 1002.57 1001.71 1001.47 1000.97 1001.27 1000.78 1000.38
1017.26 1016.87 1016.45 1015.95 1015.55 1015.29 1015.17 1015.00 1014.73 1014.57 1014.35 1014.31 1014.19 1014.19 1013.48 1009.18 1005.36 1004.84 1005.28 1005.62 1006.47 1007.39 1006.76 1005.79 1004.60 1004.32 1004.11 1003.97 1004.12 1005.81 1006.40 1007.09 1007.28 1006.42 1007.10 1007.67 1007.08 1005.99 1003.71 1003.13 1002.53 1001.78 1001.15 1000.98 1000.23
1016.98 1016.73 1016.28 1015.86 1015.55 1015.08 1014.69 1014.33 1014.09 1013.93 1013.88 1013.64 1013.72 1013.51 1011.75 1007.07 1004.56 1004.22 1004.78 1004.30 1005.16 1005.62 1005.03 1004.73 1004.37 1003.95 1003.78 1003.59 1004.04 1006.28 1006.54 1007.57 1007.35 1007.08 1007.22 1007.51 1007.40 1006.43 1005.19 1003.28 1003.44 1002.03 1001.41 1000.86 1000.69
1016.72 1016.28 1015.85 1015.47 1014.93 1014.54 1014.41 1014.00 1013.66 1013.19 1012.90 1012.86 1012.71 1012.68 1009.07 1005.51 1004.95 1004.91 1004.15 1003.93 1003.91 1004.89 1004.43 1004.31 1004.16 1003.46 1003.15 1003.04 1003.21 1005.27 1006.75 1007.01 1006.76 1007.04 1007.32 1008.13 1006.28 1005.95 1005.04 1004.14 1003.20 1002.39 1001.48 1000.76 1000.79
1016.44 1016.06 1015.69 1015.18 1014.70 1014.36 1013.90 1013.38 1012.98 1012.63 1012.07 1011.63 1012.04 1011.15 1006.30 1003.60 1004.00 1003.24 1003.40 1003.19 1003.25 1004.03 1003.99 1003.74 1003.50 1002.88 1002.89 1002.42 1002.20 1003.68 1006.11 1005.59 1004.85 1005.87 1006.40 1007.77 1006.34 1005.30 1006.12 1005.80 1003.56 1001.72 1001.42 1001.13 1000.60
1015.94 1015.54 1015.22 1014.86 1014.43 1013.91 1013.46 1012.96 1011.52 1011.87 1011.62 1011.10 1010.25 1010.51 1005.29 1001.82 1001.61 1001.91 1002.33 1002.23 1002.42 1003.19 1003.56 1003.33 1002.86 1002.38 1001.96 1001.20 1000.35 1003.65 1004.48 1003.19 1002.66 1003.11 1005.43 1006.34 1005.76 1005.55 1006.27 1005.87 1004.20 1002.46 1001.10 1000.66 1000.57
1015.44 1015.12 1014.72 1014.27 1013.83 1013.49 1012.99 1012.01 1010.54 1010.18 1010.01 1007.36 1005.60 1004.13 1000.40 1000.91 1000.32 1000.71 1001.25 1001.28 1001.88 1002.30 1001.87 1002.07 1001.70 1000.27 1000.13 999.75 1000.07 1000.47 1000.33 1000.61 1000.50 1000.89 1002.95 1003.73 1005.01 1004.61 1005.46 1005.54 1004.38 1002.39 1001.13 1000.64 1000.08
1014.95 1014.63 1014.23 1013.80 1013.30 1012.84 1012.55 1011.20 1008.53 1007.32 1005.89 1005.88 1003.95 1002.92 1001.73 1000.50 999.89 999.79 1000.52 1000.47 1000.72 1000.40 1000.97 1001.14 999.98 1000.16 1000.06 999.90 999.75 999.21 998.76 999.09 1000.18 999.95 1001.08 1002.15 1003.35 1004.01 1004.11 1004.33 1004.35 1003.33 1001.48 1000.76 1000.29
1014.50 1014.17 1013.84 1013.32 1012.55 1011.39 1009.93 1008.65 1008.15 1007.91 1005.90 1002.28 1000.65 1000.71 1000.14 1000.40 999.39 998.79 999.59 999.23 999.29 999.50 999.50 998.80 998.98 999.82 999.41 999.12 999.02 998.43 997.92 998.56 998.86 999.20 1000.74 1001.35 1001.47 1002.33 1002.36 1002.76 1002.94 1002.22 1002.05 1000.70 1000.28
1013.95 1013.49 1013.21 1012.80 1011.50 1009.92 1008.51 1006.56 1007.25 1007.44 1005.79 999.59 996.63 996.66 998.93 999.10 998.64 997.82 998.89 998.50 998.33 997.80 998.17 997.96 997.69 998.23 998.09 998.15 998.26 997.77 998.11 998.08 998.54 998.77 999.19 1000.22 999.27 1000.21 1000.95 1001.10 1001.44 1001.14 1000.10 1000.19 1000.27
1013.49 1013.01 1012.72 1012.60 1011.43 1009.94 1008.35 1007.41 1007.71 1008.26 1002.75 993.44 993.56 993.97 995.67 996.88 996.21 996.37 998.13 997.91 996.95 996.46 997.03 996.51 996.43 996.87 996.96 997.17 997.55 997.41 997.94 998.39 998.36 998.75 998.46 998.35 998.93 998.38 998.55 999.40 1000.10 1000.61 1000.12 1000.00 1000.07
1013.10 1012.56 1011.81 1011.30 1010.16 1009.58 1008.63 1007.97 1008.44 1006.60 999.09 993.65 992.92 993.61 994.62 996.03 995.25 996.14 997.66 997.82 996.92 996.26 996.13 995.78 996.11 995.92 996.52 996.90 997.38 997.97 997.59 998.56 999.23 998.83 997.95 997.32 997.54 996.80 996.92 997.71 998.49 999.55 999.79 1000.07 1000.46
1012.15 1011.50 1011.11 1010.00 1008.29 1007.87 1007.57 1008.18 1007.23 1002.56 996.50 992.37 991.66 992.76 993.37 994.78 995.18 995.60 996.76 996.94 995.78 995.35 995.03 995.47 994.85 995.46 996.03 996.30 996.75 997.29 997.08 997.64 997.81 997.09 996.23 996.42 996.51 996.17 995.34 997.01 997.75 998.28 999.37 1000.22 1000.93
1011.21 1010.19 1008.51 1007.26 1006.46 1006.45 1007.32 1007.44 1004.54 998.76 995.40 992.68 991.09 992.07 992.53 993.98 994.75 995.33 996.08 996.10 995.45 994.92 994.41 994.34 994.16 994.53 995.24 995.05 995.26 996.19 996.71 995.60 995.26 995.63 995.30 995.52 995.21 995.32 995.89 997.38 998.12 998.64 999.90 1000.83 1001.14
1010.22 1007.40 1005.78 1004.51 1004.78 1005.61 1007.14 1004.94 1000.77 997.42 995.03 993.49 991.39 991.59 993.03 993.43 994.41 995.00 995.22 995.24 995.08 994.51 993.77 993.80 993.56 994.71 995.03 995.07 995.24 995.96 995.72 995.19 994.75 994.42 994.19 994.67 996.37 997.15 997.35 998.41 999.25 999.76 1000.65 1001.41 1001.80
1009.48 1006.91 1004.66 1005.38 1006.22 1007.03 1006.46 1003.03 999.36 997.66 996.58 995.65 994.77 993.10 993.25 994.65 994.03 994.67 994.74 995.28 995.23 994.76 993.99 993.64 993.47 994.39 995.27 995.62 995.33 995.08 996.18 995.85 995.46 994.87 994.48 995.01 995.55 995.76 997.73 998.58 999.43 1000.36 1001.40 1002.01 1002.08
1008.83 1005.91 1005.60 1005.90 1007.00 1007.16 1004.79 1001.31 998.70 998.31 997.95 997.01 994.86 994.73 994.33 995.21 995.14 994.29 994.75 995.47 995.17 994.94 994.71 994.71 993.86 994.51 994.97 994.86 994.20 995.10 994.94 995.37 995.34 995.43 995.20 995.18 995.41 996.08 997.34 998.44 999.74 1000.66 1001.63 1002.18 1002.23
1008.50 1006.66 1006.46 1007.27 1007.08 1006.33 1003.96 1000.38 998.84 996.92 996.97 997.10 996.81 997.26 996.61 995.30 995.64 995.47 995.41 995.65 995.86 995.21 994.91 995.20 994.54 994.33 994.56 995.04 994.79 994.67 994.81 995.46 995.40 995.95 996.04 995.90 998.44 997.39 997.90 999.00 999.96 1000.97 1001.84 1002.41 1002.70
1008.52 1006.30 1006.86 1007.02 1006.81 1005.89 1004.16 1000.98 998.99 996.89 996.58 998.66 997.72 998.34 998.86 997.51 996.88 995.59 995.42 996.18 996.63 995.60 995.37 995.99 995.99 996.48 995.45 996.46 996.17 995.65 995.27 995.30 996.20 996.52 996.56 996.99 998.53 998.99 999.08 999.61 1000.56 1001.39 1002.34 1003.02 1003.33
1009.13 1007.42 1006.53 1007.03 1006.72 1006.10 1003.92 1000.83 998.20 996.32 996.67 997.94 998.71 998.94 999.19 997.87 997.50 995.70 995.54 995.70 995.53 995.92 996.63 997.13 997.53 997.33 996.45 996.37 996.78 996.52 995.55 995.82 996.33 997.03 997.25 997.82 999.15 999.74 999.95 1000.36 1001.15 1002.13 1002.91 1003.23 1003.99
1009.41 1008.62 1008.33 1006.84 1005.99 1005.37 1004.28 1002.34 1000.33 998.21 998.20 999.00 999.11 999.52 999.76 999.69 998.14 996.55 995.59 994.62 995.52 996.54 997.62 998.11 998.46 998.77 998.47 997.67 997.16 996.93 996.65 996.65 997.78 998.59 998.16 998.67 999.45 999.75 999.95 1000.26 1001.00 1002.21 1002.98 1003.73 1004.35
1009.09 1009.55 1009.22 1007.82 1006.20 1005.42 1004.50 1003.16 1001.74 999.74 1000.06 1000.35 1000.25 1000.79 1001.04 1000.57 999.05 996.94 995.26 994.43 995.26 996.95 997.81 998.85 999.19 999.51 999.11 998.03 997.56 997.85 997.74 997.95 997.99 998.18 998.50 998.54 999.03 999.54 1000.74 1001.19 1001.62 1002.29 1003.11 1004.04 1004.64
1009.52 1009.56 1009.84 1007.94 1006.73 1006.16 1005.60 1004.18 1001.55 1000.64 1001.10 1000.63 1000.74 1001.26 1002.03 1001.98 1000.06 997.78 995.47 995.40 995.97 996.60 997.48 998.75 998.85 999.89 999.63 998.97 998.66 998.21 997.79 998.05 998.41 998.87 999.23 999.28 999.66 1000.02 1001.15 1001.90 1002.42 1003.13 1003.76 1004.21 1005.11
Wind_Speed
12 12 12 11 11 10 11 10 11 11 11 12 9 9 9 11 13 15 23 11 11 16 8 14 22 21 19 21 21 18 16 19 26 25 15 10 9 14 4 12 4 13 5 19 21
12 11 12 12 13 12 10 11 11 10 11 11 11 9 9 8 17 24 23 16 13 5 17 18 23 24 19 23 18 17 18 25 21 7 11 2 13 11 8 13 9 7 7 10 16
12 12 12 12 13 13 12 12 13 12 11 10 9 12 9 11 18 15 5 28 22 18 20 18 23 25 27 23 27 25 23 20 21 6 5 19 10 12 7 14 14 16 16 13 13
14 15 12 13 13 13 13 12 13 13 12 10 9 9 7 12 8 10 10 15 20 20 20 20 23 29 30 31 27 26 23 27 17 9 13 17 24 14 11 16 11 2 12 11 14
15 16 15 13 13 13 13 14 13 12 12 11 10 9 9 12 18 12 12 16 22 23 27 27 25 29 31 29 28 28 23 20 21 19 14 15 23 19 13 13 16 5 5 11 14
15 16 16 14 13 12 12 12 12 11 11 12 12 8 13 23 16 15 14 14 19 29 29 29 22 28 29 29 27 14 23 23 21 16 14 13 21 25 21 18 19 16 13 11 13
14 15 16 16 16 15 14 12 12 12 15 15 15 10 20 27 13 10 10 16 17 28 26 29 27 25 29 32 26 27 22 16 17 23 18 12 23 25 25 22 13 17 17 14 13
14 13 16 16 16 16 17 15 14 16 17 18 16 14 15 19 24 28 17 11 15 24 26 27 26 27 28 25 31 23 12 17 22 29 10 13 28 30 29 20 22 20 18 16 12
14 13 15 18 18 18 16 16 19 20 16 11 9 13 16 13 27 22 24 22 16 20 23 18 25 26 27 28 20 21 12 26 27 29 13 19 18 30 13 20 24 16 17 17 14
15 13 13 16 19 18 17 20 20 13 8 8 3 10 16 19 16 21 21 22 19 20 21 21 20 21 22 25 20 19 32 32 27 29 23 19 21 17 9 23 26 27 16 19 21
18 14 14 15 16 17 14 9 10 7 10 14 18 18 4 18 9 18 24 21 21 23 23 27 22 25 32 31 29 32 24 30 19 21 24 21 20 17 16 17 21 21 17 17 16
19 16 16 18 19 18 13 9 18 17 17 32 29 28 28 12 12 18 25 20 26 23 27 22 26 26 26 26 26 26 22 18 24 13 19 23 23 19 18 23 20 20 19 14 13
15 16 17 18 20 17 15 21 17 13 9 20 32 33 30 22 17 23 29 26 27 27 29 22 27 27 25 24 26 23 20 11 21 14 14 17 23 21 22 20 24 24 24 20 13
17 16 17 17 19 6 13 2 9 6 7 13 25 28 31 21 20 22 29 28 20 29 30 25 25 30 23 28 24 23 18 15 17 16 16 19 9 23 20 22 20 21 13 12 12
18 18 17 13 12 15 19 11 9 4 9 2 25 11 22 30 17 25 29 29 25 20 25 24 24 29 27 25 24 19 18 18 11 16 14 24 11 11 24 20 20 18 19 8 8
21 21 19 14 12 14 15 13 3 7 13 12 14 18 26 35 22 25 29 29 19 22 24 23 21 22 26 19 20 19 19 14 15 14 16 17 15 11 13 17 24 22 17 12 7
22 23 19 16 19 15 9 6 6 9 18 16 25 23 29 26 26 30 30 31 25 23 21 24 21 22 21 24 24 21 13 12 13 14 12 20 16 11 18 18 17 16 14 9 6
25 27 20 15 14 16 5 7 12 20 34 13 10 26 24 29 29 29 30 27 28 24 18 22 22 24 18 22 17 24 20 13 13 14 15 10 9 13 13 13 7 14 11 7 5
30 12 12 7 5 7 6 12 14 29 13 21 16 22 19 28 20 26 32 28 26 24 18 21 19 22 20 19 20 23 22 24 13 10 8 14 11 7 14 13 12 12 10 7 6
13 16 5 11 11 4 7 20 24 25 13 23 19 14 20 15 21 25 26 27 27 25 24 20 15 25 21 19 20 21 20 19 11 12 13 14 16 12 17 15 13 12 11 7 6
9 9 8 11 6 5 11 17 26 30 3 16 11 5 11 27 14 21 21 15 24 25 21 14 17 22 23 18 19 18 20 18 13 13 8 11 5 22 19 18 15 11 9 7 5
6 7 6 7 2 3 13 22 26 24 18 20 5 9 13 19 23 24 22 15 28 22 24 11 8 17 23 17 17 18 16 20 11 16 11 7 8 6 16 14 14 11 6 7 4
7 8 3 2 3 2 11 23 24 26 20 8 6 7 8 3 4 20 22 20 30 27 22 9 6 13 15 3 9 13 19 14 16 8 10 10 10 8 9 14 13 11 9 8 2
5 5 1 2 5 4 8 13 13 18 18 11 2 4 2 6 10 15 24 23 28 24 6 7 2 16 10 16 17 20 17 19 17 11 8 7 9 5 7 11 11 10 8 2 2
1 4 7 7 7 14 12 9 15 10 10 11 2 2 4 5 19 11 25 22 29 20 13 10 7 3 5 12 20 22 10 14 14 17 13 7 8 12 20 15 14 10 5 2 5
6 4 4 13 13 16 7 4 8 8 5 4 6 7 7 4 13 11 17 23 25 27 24 18 13 20 5 16 15 17 20 18 16 13 15 4 4 4 4 1 1 3 1 6 6
8 5 3 11 12 9 7 8 12 5 8 1 13 8 8 6 8 7 6 6 16 20 19 13 8 10 8 8 8 6 9 9 9 8 8 9 8 3 4 3 2 4 3 5 6
Wind_Direction
320 322 322 316 312 311 312 315 316 312 310 312 310 304 285 285 283 253 244 236 236 240 298 240 210 223 233 249 229 228 243 237 231 233 259 232 215 218 321 293 220 185 24 72 130
320 317 315 318 317 311 307 307 305 304 305 303 311 302 285 277 275 265 250 217 228 200 213 218 212 207 224 229 232 226 239 219 242 256 250 297 220 222 208 228 234 220 110 126 154
321 317 317 311 313 313 311 311 306 301 298 293 302 303 293 279 277 248 31 205 197 199 241 222 224 208 217 222 228 208 232 233 238 7 270 304 260 261 242 253 225 207 185 163 173
326 319 318 313 311 313 310 302 300 300 296 294 293 290 278 262 260 97 80 167 186 206 228 232 217 217 216 221 217 229 213 252 261 250 254 277 313 239 265 252 353 80 334 176 185
323 323 323 314 313 307 305 305 298 292 290 284 280 281 228 228 247 237 156 174 192 199 211 208 210 215 216 218 219 228 224 225 270 215 247 278 293 297 250 283 299 230 219 261 204
323 324 319 314 311 306 301 301 297 287 273 276 263 251 244 256 260 233 220 185 191 196 204 212 210 212 219 220 221 214 226 240 258 265 251 239 260 299 286 257 268 269 256 221 229
318 320 318 313 319 313 303 292 287 289 284 273 255 240 250 242 281 203 220 194 204 199 198 210 217 218 218 216 208 202 206 216 234 256 253 254 263 251 270 274 250 271 247 246 218
317 318 317 315 315 313 309 305 294 287 281 274 246 226 249 257 232 253 237 241 198 205 209 205 215 225 221 233 214 205 179 221 229 234 217 173 243 244 252 315 296 240 263 225 216
315 314 321 321 317 312 307 296 294 282 280 259 202 218 254 196 229 229 217 219 190 200 208 212 210 224 216 227 215 174 196 228 226 205 150 196 239 235 288 294 289 265 227 263 215
303 305 311 317 317 312 310 295 283 283 237 193 249 200 243 232 219 212 213 205 183 188 194 207 213 216 229 215 212 197 209 223 217 183 178 198 242 221 262 272 276 284 249 220 218
298 304 303 302 306 307 308 313 208 193 220 207 183 228 305 215 174 204 190 187 183 181 192 195 207 207 215 212 223 203 220 221 247 188 187 212 225 203 216 259 261 289 274 257 246
295 299 305 307 306 298 278 241 261 316 272 223 250 230 256 298 201 197 179 179 182 183 201 184 209 212 214 223 230 238 234 214 226 192 205 203 219 228 213 211 236 260 267 264 243
300 290 300 301 305 282 241 253 253 286 271 268 227 228 227 222 232 184 187 195 190 189 203 197 194 215 212 214 221 231 241 199 228 156 208 241 211 217 209 218 224 220 245 218 234
301 293 291 300 285 315 267 304 241 224 270 251 209 216 215 207 222 207 196 200 192 197 195 211 200 198 204 219 213 213 220 216 206 181 208 207 231 189 199 204 208 255 227 225 230
304 300 292 282 291 287 300 332 9 74 263 285 184 171 178 200 161 189 191 210 201 194 195 202 210 190 210 208 203 225 196 226 224 223 253 184 222 236 187 200 204 211 239 218 207
304 300 295 277 253 259 261 273 41 231 229 233 142 179 179 194 203 168 187 221 224 213 199 210 209 197 208 201 210 218 210 191 228 228 225 223 210 188 184 202 185 194 214 197 155
306 299 288 280 268 266 243 251 234 240 231 241 161 177 182 189 200 166 186 204 210 201 193 217 190 202 200 197 205 205 186 194 200 216 229 203 226 226 188 173 186 190 162 135 168
307 298 278 254 248 219 222 204 237 227 238 67 183 172 187 180 196 177 182 195 217 205 185 200 185 193 195 208 184 204 195 217 188 205 211 219 211 212 142 107 64 115 123 152 204
307 291 284 267 323 181 189 216 225 239 289 246 235 171 191 179 180 181 187 197 201 205 195 202 183 190 196 196 198 191 216 234 282 290 239 157 105 84 114 142 161 145 135 141 127
312 297 1 95 115 198 221 241 237 258 285 290 206 149 181 175 175 191 189 195 199 214 230 193 204 177 180 213 215 206 201 218 235 257 221 160 165 178 168 164 163 141 144 143 132
279 297 55 100 103 167 212 224 242 256 42 304 323 27 221 172 176 184 182 188 209 206 224 234 223 170 174 205 196 200 205 221 225 222 218 241 152 133 165 166 159 158 145 148 132
313 293 103 141 197 225 241 255 264 264 253 262 9 65 321 190 186 194 183 182 218 210 214 187 231 189 179 184 223 206 215 201 222 215 243 259 82 17 127 145 135 146 144 114 101
295 309 62 122 295 261 279 283 275 262 256 212 268 125 238 190 227 176 187 188 191 216 207 157 154 205 158 165 211 233 209 222 215 231 224 225 136 145 138 140 158 148 130 146 158
300 330 312 150 220 256 284 296 299 282 239 166 93 102 261 346 288 212 162 191 191 178 163 157 198 211 193 193 190 209 216 211 213 221 229 210 126 140 147 159 154 163 155 173 180
257 317 3 307 326 294 338 296 309 280 50 20 99 132 147 222 240 170 162 177 174 166 177 177 227 18 304 271 190 202 186 223 161 208 231 233 262 188 201 177 188 108 138 221 175
346 358 298 290 300 334 339 305 295 101 54 37 81 89 103 34 309 165 178 158 166 169 178 191 179 175 133 143 188 179 200 196 213 217 218 246 260 69 93 271 264 261 79 203 163
4 10 279 294 357 342 340 289 305 22 66 163 135 116 88 254 347 49 100 119 147 177 172 187 185 178 137 134 127 188 180 196 204 220 260 227 236 217 134 209 136 135 158 138 114